Terminal Aerodrome Forecast
Issued by NWS

Home | Current Version | Previous Version | Text Only | Print | Product List | Glossary On
Versions: 1 2 3 4 5 6 7 8 9 10 11 12 13 14 15 16 17 18 19 20 21 22
000
FTUS41 KCAR 272343
TAFFVE
TAF
KFVE 272343Z 2800/2824 02013G22KT 2SM -SN BLSN OVC015
     FM281200 36012G20KT 4SM -SHSN BLSN OVC015
     FM281600 33010G18KT P6SM OVC025
     FM282200 31009KT P6SM SCT035=

USA.gov is the U.S. government's official web portal to all federal, state and local government web resources and services.